Location: Caltech
(34.1382°N, 118.1253°W)
Time: 21:18:00
(UTC-07:00)

Spot 4 Rocket - Visible Passes

Search period start: 18 June 2018 00:00
Search period end: 28 June 2018 00:00
Orbit: 776 x 783 km, 98.6° (Epoch: 18 June)

Date Brightness Start Highest point End Pass type
(mag) Time Alt. Az. Time Alt. Az. Time Alt. Az.
18 Jun 3.9 03:19:11 10° NNE 03:24:20 85° WNW 03:25:43 50° SSW visible
19 Jun 4.8 02:46:48 10° NNE 02:51:43 44° E 02:52:42 39° SE visible
19 Jun 5.7 04:27:05 10° NNW 04:30:35 19° WNW 04:33:12 13° WSW visible
20 Jun 5.9 02:15:09 10° NE 02:18:55 20° E 02:19:41 20° ESE visible
20 Jun 4.7 03:53:31 10° N 03:58:15 38° WNW 04:00:10 28° WSW visible
21 Jun 3.9 03:20:37 10° N 03:25:46 83° WNW 03:27:09 50° SSW visible
22 Jun 4.7 02:48:12 10° NNE 02:53:08 45° E 02:54:08 40° SE visible
22 Jun 5.7 04:28:34 10° NNW 04:32:00 18° WNW 04:34:38 13° W visible
23 Jun 5.8 02:16:31 10° NE 02:20:22 21° E 02:21:06 21° ESE visible
23 Jun 4.8 03:54:58 10° N 03:59:41 37° WNW 04:01:36 27° WSW visible
24 Jun 3.9 03:22:02 10° N 03:27:12 80° WNW 03:28:34 50° SSW visible
25 Jun 4.7 02:49:37 10° NNE 02:54:34 47° E 02:55:32 42° SE visible
25 Jun 5.7 04:30:04 10° NNW 04:33:25 18° WNW 04:36:02 12° W visible
26 Jun 5.8 02:17:53 10° NE 02:21:48 22° E 02:22:30 21° ESE visible
26 Jun 4.8 03:56:26 10° N 04:01:06 36° WNW 04:03:00 27° WSW visible
27 Jun 3.9 03:23:28 10° N 03:28:38 78° WNW 03:29:58 50° SSW visible
